| time (UTC) | temp C | wind direction | speed KPH | gust KPH | rain 1hr cm | rain 24hr cm | rain mn cm | humidity % | barometer mb |
| 20260508005713 | 13 | 12 | 0.0 | 0.0 | 0.00 | 0.00 | 0.00 | 100 | 1003.6 |
| 20260508004714 | 13 | 0 | 0.0 | 0.0 | 0.00 | 0.00 | 0.00 | 100 | 1003.5 |
| 20260508003713 | 13 | 15 | 0.0 | 0.0 | 0.00 | 0.00 | 0.00 | 100 | 1003.5 |
| 20260508002713 | 13 | 17 | 0.0 | 0.0 | 0.00 | 0.00 | 0.00 | 100 | 1003.6 |
| 20260508001713 | 13 | 3 | 0.0 | 0.0 | 0.00 | 0.00 | 0.00 | 100 | 1003.7 |
| 20260508000713 | 14 | 0 | 0.0 | 0.0 | 0.00 | 0.00 | 0.00 | 100 | 1003.8 |
| 20260507235713 | 14 | 0 | 0.0 | 0.0 | 0.00 | 0.00 | 0.00 | 100 | 1003.7 |
| 20260507234713 | 14 | 7 | 0.0 | 0.0 | 0.00 | 0.00 | 0.00 | 100 | 1003.7 |
| 20260507233713 | 14 | 5 | 0.0 | 0.0 | 0.00 | 0.00 | 0.00 | 100 | 1003.8 |
| 20260507232713 | 14 | 8 | 0.0 | 0.0 | 0.00 | 0.00 | 0.00 | 100 | 1003.8 |
| 20260507231713 | 14 | 6 | 0.0 | 0.0 | 0.00 | 0.00 | 0.00 | 100 | 1003.8 |
| 20260507230713 | 15 | 2 | 0.0 | 0.0 | 0.00 | 0.00 | 0.00 | 100 | 1003.9 |
| 20260507225712 | 15 | 9 | 0.0 | 0.0 | 0.00 | 0.00 | 0.00 | 100 | 1003.8 |
| 20260507224712 | 15 | 11 | 0.0 | 0.0 | 0.00 | 0.00 | 0.00 | 100 | 1003.8 |
| 20260507223712 | 15 | 8 | 0.0 | 0.0 | 0.00 | 0.00 | 0.00 | 100 | 1004.0 |
| 20260507222642 | 15 | 8 | 0.0 | 0.0 | 0.00 | 0.00 | 0.00 | 100 | 1004.0 |
| 20260507221642 | 15 | 14 | 0.0 | 0.0 | 0.00 | 0.00 | 0.00 | 100 | 1004.0 |
| 20260507220642 | 15 | 4 | 0.0 | 0.0 | 0.00 | 0.00 | 0.00 | 100 | 1004.1 |
| 20260507215642 | 15 | 17 | 0.0 | 0.0 | 0.00 | 0.00 | 0.00 | 100 | 1004.1 |
| 20260507214642 | 15 | 19 | 0.0 | 0.0 | 0.00 | 0.00 | 0.00 | 100 | 1004.0 |
| 20260507213642 | 15 | 19 | 0.0 | 0.0 | 0.00 | 0.00 | 0.00 | 100 | 1004.1 |
| 20260507212642 | 16 | 22 | 0.0 | 0.0 | 0.00 | 0.00 | 0.00 | 100 | 1004.1 |
| 20260507211642 | 16 | 42 | 0.0 | 0.0 | 0.00 | 0.00 | 0.00 | 100 | 1004.1 |
| 20260507210641 | 16 | 42 | 0.0 | 0.0 | 0.00 | 0.00 | 0.00 | 100 | 1004.1 |
| 20260507205611 | 16 | 48 | 0.0 | 0.0 | 0.00 | 0.00 | 0.00 | 100 | 1003.9 |
| 20260507204611 | 16 | 48 | 0.0 | 0.0 | 0.00 | 0.00 | 0.00 | 100 | 1004.0 |
| 20260507203611 | 16 | 47 | 0.0 | 0.0 | 0.00 | 0.00 | 0.00 | 100 | 1004.0 |
| 20260507202611 | 16 | 47 | 0.0 | 0.0 | 0.00 | 0.00 | 0.00 | 100 | 1003.9 |
| 20260507201541 | 16 | 47 | 0.0 | 0.0 | 0.00 | 0.00 | 0.00 | 100 | 1003.8 |
| 20260507200541 | 16 | 47 | 0.0 | 0.0 | 0.00 | 0.00 | 0.00 | 100 | 1003.7 |
| 20260507195541 | 16 | 47 | 0.0 | 0.0 | 0.00 | 0.00 | 0.00 | 100 | 1422.8 |
| 20260507194541 | 17 | 99 | 0.0 | 0.0 | 0.00 | 0.00 | 0.00 | 100 | 1403.5 |
| 20260507193511 | 17 | 99 | 0.0 | 0.0 | 0.00 | 0.00 | 0.00 | 100 | 1003.4 |
| 20260507192511 | 17 | 99 | 0.0 | 0.0 | 0.00 | 0.00 | 0.00 | 100 | 1003.2 |
| 20260507191510 | 17 | 100 | 0.0 | 0.0 | 0.00 | 0.00 | 0.00 | 100 | 1002.9 |
| 20260507190440 | 17 | 100 | 0.0 | 0.0 | 0.00 | 0.00 | 0.00 | 100 | 1002.9 |
| 20260507185440 | 18 | 132 | 0.0 | 0.0 | 0.00 | 0.00 | 0.00 | 100 | 1002.8 |
| 20260507184440 | 18 | 128 | 0.0 | 0.0 | 0.00 | 0.00 | 0.00 | 100 | 1002.6 |
| 20260507183410 | 19 | 141 | 0.0 | 0.0 | 0.00 | 0.00 | 0.00 | 100 | 1002.6 |
| 20260507182410 | 19 | 141 | 0.0 | 0.0 | 0.00 | 0.00 | 0.00 | 100 | 1002.5 |
| 20260507181410 | 18 | 136 | 0.0 | 0.0 | 0.00 | 0.00 | 0.00 | 100 | 1000.8 |
| 20260507180410 | 19 | 119 | 0.0 | 0.0 | 0.00 | 0.00 | 0.00 | 100 | 1002.5 |
| 20260507175340 | 20 | 136 | 0.0 | 0.0 | 0.00 | 0.00 | 0.00 | 100 | 1002.4 |
| 20260507174339 | 20 | 132 | 0.0 | 0.0 | 0.00 | 0.00 | 0.00 | 100 | 1002.2 |
| 20260507173309 | 20 | 158 | 0.0 | 0.0 | 0.00 | 0.00 | 0.00 | 100 | 1002.2 |
| 20260507172310 | 20 | 99 | 0.0 | 0.0 | 0.00 | 0.00 | 0.00 | 100 | 1002.3 |
| 20260507171239 | 21 | 129 | 0.0 | 0.0 | 0.00 | 0.00 | 0.00 | 100 | 1002.2 |
| 20260507170239 | 22 | 117 | 0.0 | 0.0 | 0.00 | 0.00 | 0.00 | 100 | 1002.1 |
| 20260507165239 | 21 | 105 | 0.0 | 0.0 | 0.00 | 0.00 | 0.00 | 100 | 1001.8 |
| 20260507164239 | 21 | 130 | 0.0 | 0.0 | 0.00 | 0.00 | 0.00 | 100 | 1002.0 |
| 20260507163239 | 21 | 125 | 0.0 | 0.0 | 0.00 | 0.00 | 0.00 | 100 | 1001.9 |
| 20260507162209 | 21 | 144 | 0.0 | 0.0 | 0.00 | 0.00 | 0.00 | 100 | 1001.8 |
| 20260507161209 | 22 | 133 | 0.0 | 0.0 | 0.00 | 0.00 | 0.00 | 100 | 1001.6 |
| 20260507160139 | 23 | 136 | 0.0 | 0.0 | 0.00 | 0.00 | 0.00 | 100 | 1004.8 |
| 20260507155139 | 22 | 130 | 0.0 | 0.0 | 0.00 | 0.00 | 0.00 | 100 | 1001.5 |
| 20260507154138 | 22 | 124 | 0.0 | 0.0 | 0.00 | 0.00 | 0.00 | 100 | 1001.6 |
| 20260507153108 | 22 | 97 | 0.0 | 0.0 | 0.00 | 0.00 | 0.00 | 100 | 1001.9 |
| 20260507152108 | 22 | 164 | 0.0 | 0.0 | 0.00 | 0.00 | 0.00 | 100 | 1002.0 |
| 20260507151108 | 22 | 136 | 0.0 | 0.0 | 0.00 | 0.00 | 0.00 | 100 | 1002.1 |
| 20260507150038 | 22 | 74 | 0.0 | 0.0 | 0.00 | 0.00 | 0.00 | 100 | 1002.1 |
| 20260507145038 | 22 | 110 | 0.0 | 0.0 | 0.00 | 0.00 | 0.00 | 100 | 1002.3 |
| 20260507144038 | 22 | 93 | 0.0 | 0.0 | 0.00 | 0.00 | 0.00 | 100 | 1002.3 |
| 20260507143038 | 31 | 91 | 0.0 | 0.0 | 0.00 | 0.00 | 0.00 | 100 | 1023.0 |
| 20260507142038 | 29 | 100 | 0.0 | 0.0 | 0.00 | 0.00 | 0.00 | 100 | 1019.2 |
| 20260507141037 | 22 | 148 | 0.0 | 0.0 | 0.00 | 0.00 | 0.00 | 100 | 1002.4 |
| 20260507140037 | 22 | 135 | 0.0 | 0.0 | 0.00 | 0.00 | 0.00 | 100 | 1002.7 |
| 20260507135037 | 22 | 150 | 0.0 | 0.0 | 0.00 | 0.00 | 0.00 | 100 | 1002.9 |
| 20260507134037 | 22 | 138 | 0.0 | 0.0 | 0.00 | 0.00 | 0.00 | 100 | 1002.9 |
| 20260507133037 | 22 | 137 | 0.0 | 0.0 | 0.00 | 0.00 | 0.00 | 100 | 1003.1 |
| 20260507132007 | 22 | 131 | 0.0 | 0.0 | 0.00 | 0.00 | 0.00 | 100 | 1003.1 |
| 20260507130937 | 22 | 76 | 0.0 | 0.0 | 0.00 | 0.00 | 0.00 | 100 | 1003.6 |
| 20260507125937 | 22 | 87 | 0.0 | 0.0 | 0.00 | 0.00 | 0.00 | 100 | 1003.5 |
| 20260507124907 | 21 | 116 | 0.0 | 0.0 | 0.00 | 0.00 | 0.00 | 100 | 1003.4 |
| 20260507123907 | 21 | 120 | 0.0 | 0.0 | 0.00 | 0.00 | 0.00 | 100 | 1003.9 |
| 20260507122907 | 22 | 166 | 0.0 | 0.0 | 0.00 | 0.00 | 0.00 | 100 | 1003.8 |
| 20260507121907 | 23 | 109 | 0.0 | 0.0 | 0.00 | 0.00 | 0.00 | 100 | 1003.9 |
| 20260507120837 | 22 | 111 | 0.0 | 0.0 | 0.00 | 0.00 | 0.00 | 100 | 1003.7 |
| 20260507115837 | 22 | 163 | 0.0 | 0.0 | 0.00 | 0.00 | 0.00 | 100 | 1003.8 |
| 20260507114837 | 21 | 121 | 0.0 | 0.0 | 0.00 | 0.00 | 0.00 | 100 | 1004.1 |
| 20260507113836 | 21 | 140 | 0.0 | 0.0 | 0.00 | 0.00 | 0.00 | 100 | 1003.9 |
| 20260507112836 | 21 | 135 | 0.0 | 0.0 | 0.00 | 0.00 | 0.00 | 100 | 1004.0 |
| 20260507111836 | 21 | 125 | 0.0 | 0.0 | 0.00 | 0.00 | 0.00 | 100 | 1004.2 |
| 20260507110836 | 21 | 147 | 0.0 | 0.0 | 0.00 | 0.00 | 0.00 | 100 | 1004.0 |
| 20260507105836 | 21 | 132 | 0.0 | 0.0 | 0.00 | 0.00 | 0.00 | 100 | 1004.2 |
| 20260507104806 | 21 | 75 | 0.0 | 0.0 | 0.00 | 0.00 | 0.00 | 100 | 1004.3 |
| 20260507103806 | 21 | 137 | 0.0 | 0.0 | 0.00 | 0.00 | 0.00 | 100 | 1004.3 |
| 20260507102806 | 21 | 110 | 0.0 | 0.0 | 0.00 | 0.00 | 0.00 | 100 | 1004.3 |
| 20260507101806 | 20 | 129 | 0.0 | 0.0 | 0.00 | 0.00 | 0.00 | 100 | 1004.2 |
| 20260507100806 | 21 | 136 | 0.0 | 0.0 | 0.00 | 0.00 | 0.00 | 100 | 1004.5 |
| 20260507095805 | 21 | 128 | 0.0 | 0.0 | 0.00 | 0.00 | 0.00 | 100 | 1004.4 |
| 20260507094805 | 21 | 82 | 0.0 | 0.0 | 0.00 | 0.00 | 0.00 | 100 | 1004.5 |
| 20260507093805 | 20 | 154 | 0.0 | 0.0 | 0.00 | 0.00 | 0.00 | 100 | 1004.5 |
| 20260507092805 | 20 | 135 | 0.0 | 0.0 | 0.00 | 0.00 | 0.00 | 100 | 1004.4 |
| 20260507091805 | 20 | 135 | 0.0 | 0.0 | 0.00 | 0.00 | 0.00 | 100 | 1004.5 |
| 20260507090805 | 20 | 142 | 0.0 | 0.0 | 0.00 | 0.00 | 0.00 | 100 | 1004.4 |
| 20260507085805 | 20 | 147 | 0.0 | 0.0 | 0.00 | 0.00 | 0.00 | 100 | 1004.5 |
| 20260507084735 | 19 | 151 | 0.0 | 0.0 | 0.00 | 0.00 | 0.00 | 100 | 1004.3 |
| 20260507083735 | 18 | 139 | 0.0 | 0.0 | 0.00 | 0.00 | 0.00 | 100 | 1004.3 |
| 20260507082735 | 18 | 55 | 0.0 | 0.0 | 0.00 | 0.00 | 0.00 | 100 | 1004.2 |
| 20260507081735 | 17 | 32 | 0.0 | 0.0 | 0.00 | 0.00 | 0.00 | 100 | 1004.3 |
| 20260507080704 | 17 | 25 | 0.0 | 0.0 | 0.00 | 0.00 | 0.00 | 100 | 1004.2 |
| 20260507075704 | 17 | 0 | 0.0 | 0.0 | 0.00 | 0.00 | 0.00 | 100 | 1004.4 |
| 20260507074704 | 17 | 353 | 0.0 | 0.0 | 0.00 | 0.00 | 0.00 | 100 | 1004.6 |
| 20260507073634 | 16 | 32 | 0.0 | 0.0 | 0.00 | 0.00 | 0.00 | 100 | 1004.7 |
| 20260507072634 | 16 | 0 | 0.0 | 0.0 | 0.00 | 0.00 | 0.00 | 100 | 1004.8 |
| 20260507071634 | 16 | 0 | 0.0 | 0.0 | 0.00 | 0.00 | 0.00 | 100 | 1004.8 |
| 20260507070634 | 15 | 23 | 0.0 | 0.0 | 0.00 | 0.00 | 0.00 | 100 | 1004.8 |
| 20260507065604 | 15 | 27 | 0.0 | 0.0 | 0.00 | 0.00 | 0.00 | 100 | 1004.8 |
| 20260507064534 | 15 | 3 | 0.0 | 0.0 | 0.00 | 0.00 | 0.00 | 100 | 1004.7 |
| 20260507063533 | 14 | 10 | 0.0 | 0.0 | 0.00 | 0.00 | 0.00 | 100 | 1004.7 |
| 20260507062533 | 14 | 19 | 0.0 | 0.0 | 0.00 | 0.00 | 0.00 | 100 | 1004.6 |
| 20260507061507 | 14 | 38 | 0.0 | 0.0 | 0.00 | 0.00 | 0.00 | 100 | 1004.3 |
| 20260507060437 | 13 | 36 | 0.0 | 0.0 | 0.00 | 0.00 | 0.00 | 100 | 1004.3 |
| 20260507055437 | 13 | 1 | 0.0 | 0.0 | 0.00 | 0.00 | 0.00 | 100 | 1004.2 |
| 20260507054437 | 12 | 35 | 0.0 | 0.0 | 0.00 | 0.00 | 0.00 | 100 | 1004.2 |
| 20260507053407 | 12 | 16 | 0.0 | 0.0 | 0.00 | 0.00 | 0.00 | 100 | 1004.2 |
| 20260507052407 | 12 | 26 | 0.0 | 0.0 | 0.00 | 0.00 | 0.00 | 100 | 1004.1 |
| 20260507051336 | 11 | 21 | 0.0 | 0.0 | 0.00 | 0.00 | 0.00 | 100 | 1004.0 |
| 20260507050336 | 11 | 9 | 0.0 | 0.0 | 0.00 | 0.00 | 0.00 | 100 | 1003.9 |
| 20260507045336 | 11 | 18 | 0.0 | 0.0 | 0.00 | 0.00 | 0.00 | 100 | 1003.9 |
| 20260507044337 | 11 | 357 | 0.0 | 0.0 | 0.00 | 0.00 | 0.00 | 100 | 1003.9 |
| 20260507043306 | 11 | 5 | 0.0 | 0.0 | 0.00 | 0.00 | 0.00 | 100 | 1003.9 |
| 20260507042307 | 11 | 13 | 0.0 | 0.0 | 0.00 | 0.00 | 0.00 | 100 | 1003.9 |
| 20260507041306 | 11 | 9 | 0.0 | 0.0 | 0.00 | 0.00 | 0.00 | 100 | 1003.9 |
| 20260507040306 | 11 | 6 | 0.0 | 0.0 | 0.00 | 0.00 | 0.00 | 100 | 1003.9 |
| 20260507035235 | 11 | 0 | 0.0 | 0.0 | 0.00 | 0.00 | 0.00 | 100 | 1003.8 |
| 20260507034205 | 11 | 8 | 0.0 | 0.0 | 0.00 | 0.00 | 0.00 | 100 | 1003.7 |
| 20260507033205 | 11 | 11 | 0.0 | 0.0 | 0.00 | 0.00 | 0.00 | 100 | 1003.9 |
| 20260507032205 | 11 | 17 | 0.0 | 0.0 | 0.00 | 0.00 | 0.00 | 100 | 1003.8 |
| 20260507031205 | 11 | 17 | 0.0 | 0.0 | 0.00 | 0.00 | 0.00 | 100 | 1003.9 |
| 20260507030145 | 11 | 0 | 0.0 | 0.0 | 0.00 | 0.00 | 0.00 | 100 | 1003.9 |
| 20260507025145 | 11 | 21 | 0.0 | 0.0 | 0.00 | 0.00 | 0.00 | 100 | 1003.8 |
| 20260507024145 | 12 | 10 | 0.0 | 0.0 | 0.00 | 0.00 | 0.00 | 100 | 1003.9 |
| 20260507023115 | 12 | 2 | 0.0 | 0.0 | 0.00 | 0.00 | 0.00 | 100 | 1003.8 |
| 20260507022115 | 12 | 19 | 0.0 | 0.0 | 0.00 | 0.00 | 0.00 | 100 | 1003.6 |
| 20260507021115 | 12 | 3 | 0.0 | 0.0 | 0.00 | 0.00 | 0.00 | 100 | 1003.7 |
| 20260507020115 | 12 | 24 | 0.0 | 0.0 | 0.00 | 0.00 | 0.00 | 100 | 1003.8 |
| 20260507015115 | 12 | 1 | 0.0 | 0.0 | 0.00 | 0.00 | 0.00 | 100 | 1003.8 |
| 20260507014115 | 12 | 17 | 0.0 | 0.0 | 0.00 | 0.00 | 0.00 | 100 | 1003.6 |
| 20260507013045 | 12 | 11 | 0.0 | 0.0 | 0.00 | 0.00 | 0.00 | 100 | 1003.7 |
| 20260507012045 | 12 | 309 | 0.0 | 0.0 | 0.00 | 0.00 | 0.00 | 100 | 1003.6 |
| 20260507011015 | 12 | 9 | 0.0 | 0.0 | 0.00 | 0.00 | 0.00 | 100 | 1003.6 |